Time,TemperatureF,DewpointF,PressureIn,WindDirection,WindDirectionDegrees,WindSpeedMPH,WindSpeedGustMPH,Humidity,HourlyPrecipIn,Conditions,Clouds,dailyrainin,SoftwareType,DateUTC
2013-06-14 00:02:00,60.0,54.0,30.08,NE,47,0.0,1.0,80,0.00,,,0.00,,2013-06-14 05:02:00,
2013-06-14 00:11:00,60.0,54.0,30.08,NE,47,0.0,0.0,80,0.00,,,0.00,,2013-06-14 05:11:00,
2013-06-14 00:22:00,59.0,53.0,30.07,NE,47,0.0,0.0,81,0.00,,,0.00,,2013-06-14 05:22:00,
2013-06-14 00:34:00,59.0,54.0,30.08,NE,47,0.0,0.0,82,0.00,,,0.00,,2013-06-14 05:34:00,
2013-06-14 00:43:00,58.0,53.0,30.08,NE,47,0.0,2.0,83,0.00,,,0.00,,2013-06-14 05:43:00,
2013-06-14 00:52:00,58.0,53.0,30.08,NE,47,0.0,0.0,83,0.00,,,0.00,,2013-06-14 05:52:00,
2013-06-14 01:02:00,58.0,53.0,30.08,NE,47,0.0,1.0,83,0.00,,,0.00,,2013-06-14 06:02:00,
2013-06-14 01:12:00,58.0,53.0,30.09,NE,47,0.0,0.0,84,0.00,,,0.00,,2013-06-14 06:12:00,
2013-06-14 01:22:00,58.0,53.0,30.09,NE,47,0.0,1.0,84,0.00,,,0.00,,2013-06-14 06:22:00,
2013-06-14 01:33:00,57.0,53.0,30.08,NE,47,0.0,2.0,85,0.00,,,0.00,,2013-06-14 06:33:00,
2013-06-14 01:43:00,57.0,53.0,30.09,NE,47,0.0,0.0,86,0.00,,,0.00,,2013-06-14 06:43:00,
2013-06-14 01:52:00,57.0,53.0,30.08,NE,47,0.0,0.0,86,0.00,,,0.00,,2013-06-14 06:52:00,
2013-06-14 02:02:00,56.0,52.0,30.08,NE,47,0.0,1.0,88,0.00,,,0.00,,2013-06-14 07:02:00,
2013-06-14 02:12:00,56.0,52.0,30.08,NE,47,0.0,3.0,87,0.00,,,0.00,,2013-06-14 07:12:00,
2013-06-14 02:22:00,56.0,52.0,30.09,NE,47,0.0,1.0,87,0.00,,,0.00,,2013-06-14 07:22:00,
2013-06-14 02:33:00,56.0,52.0,30.09,NE,47,0.0,2.0,88,0.00,,,0.00,,2013-06-14 07:33:00,
2013-06-14 02:43:00,56.0,52.0,30.09,NE,47,0.0,2.0,88,0.00,,,0.00,,2013-06-14 07:43:00,
2013-06-14 02:53:00,56.0,53.0,30.09,NE,47,0.0,0.0,89,0.00,,,0.00,,2013-06-14 07:53:00,
2013-06-14 03:02:00,55.0,52.0,30.09,NE,46,0.0,0.0,89,0.00,,,0.00,,2013-06-14 08:02:00,
2013-06-14 03:12:00,55.0,52.0,30.09,NE,47,0.0,1.0,90,0.00,,,0.00,,2013-06-14 08:12:00,
2013-06-14 03:23:00,55.0,52.0,30.09,NE,47,0.0,1.0,90,0.00,,,0.00,,2013-06-14 08:23:00,
2013-06-14 03:33:00,55.0,52.0,30.09,NE,47,0.0,2.0,90,0.00,,,0.00,,2013-06-14 08:33:00,
2013-06-14 03:43:00,55.0,52.0,30.09,NE,47,0.0,2.0,90,0.00,,,0.00,,2013-06-14 08:43:00,
2013-06-14 03:53:00,55.0,52.0,30.09,NE,47,0.0,1.0,90,0.00,,,0.00,,2013-06-14 08:53:00,
2013-06-14 04:02:00,55.0,52.0,30.10,NE,47,0.0,2.0,91,0.00,,,0.00,,2013-06-14 09:02:00,
2013-06-14 04:12:00,55.0,52.0,30.09,NE,47,0.0,2.0,91,0.00,,,0.00,,2013-06-14 09:12:00,
2013-06-14 04:22:00,55.0,52.0,30.09,NE,44,1.0,4.0,91,0.00,,,0.00,,2013-06-14 09:22:00,
2013-06-14 04:33:00,55.0,53.0,30.08,ENE,66,1.0,4.0,92,0.00,,,0.00,,2013-06-14 09:33:00,
2013-06-14 04:43:00,55.0,52.0,30.08,ENE,63,1.0,4.0,91,0.00,,,0.00,,2013-06-14 09:43:00,
2013-06-14 04:53:00,54.0,51.0,30.08,ENE,64,2.0,5.0,91,0.00,,,0.00,,2013-06-14 09:53:00,
2013-06-14 05:01:00,54.0,51.0,30.08,NE,47,1.0,3.0,91,0.00,,,0.00,,2013-06-14 10:01:00,
2013-06-14 05:11:00,54.0,51.0,30.09,NE,47,0.0,2.0,91,0.00,,,0.00,,2013-06-14 10:11:00,
2013-06-14 05:22:00,54.0,51.0,30.09,NE,47,0.0,1.0,91,0.00,,,0.00,,2013-06-14 10:22:00,
2013-06-14 05:34:00,53.0,51.0,30.09,NE,47,1.0,2.0,92,0.00,,,0.00,,2013-06-14 10:34:00,
2013-06-14 05:43:00,54.0,52.0,30.09,NE,45,1.0,3.0,93,0.00,,,0.00,,2013-06-14 10:43:00,
2013-06-14 05:52:00,54.0,52.0,30.09,NE,56,1.0,4.0,93,0.00,,,0.00,,2013-06-14 10:52:00,
2013-06-14 06:02:00,54.0,52.0,30.09,NE,53,1.0,3.0,93,0.00,,,0.00,,2013-06-14 11:02:00,
2013-06-14 06:11:00,54.0,52.0,30.09,ENE,71,3.0,6.0,92,0.00,,,0.00,,2013-06-14 11:11:00,
2013-06-14 06:22:00,54.0,51.0,30.09,SE,138,1.0,7.0,90,0.00,,,0.00,,2013-06-14 11:22:00,
2013-06-14 06:32:00,55.0,52.0,30.09,NE,56,2.0,5.0,89,0.00,,,0.00,,2013-06-14 11:32:00,
2013-06-14 06:43:00,55.0,51.0,30.10,ENE,62,2.0,5.0,86,0.00,,,0.00,,2013-06-14 11:43:00,
2013-06-14 06:52:00,55.0,51.0,30.09,ENE,57,2.0,4.0,86,0.00,,,0.00,,2013-06-14 11:52:00,
2013-06-14 07:02:00,56.0,52.0,30.10,East,90,0.0,4.0,85,0.00,,,0.00,,2013-06-14 12:02:00,
2013-06-14 07:11:00,56.0,51.0,30.10,ENE,71,0.0,1.0,83,0.00,,,0.00,,2013-06-14 12:11:00,
2013-06-14 07:22:00,56.0,50.0,30.11,ENE,71,0.0,1.0,81,0.00,,,0.00,,2013-06-14 12:22:00,
2013-06-14 07:32:00,57.0,51.0,30.11,ENE,71,0.0,2.0,79,0.00,,,0.00,,2013-06-14 12:32:00,
2013-06-14 07:43:00,57.0,49.0,30.11,ENE,59,1.0,3.0,75,0.00,,,0.00,,2013-06-14 12:43:00,
2013-06-14 07:52:00,58.0,50.0,30.11,SSE,154,0.0,3.0,75,0.00,,,0.00,,2013-06-14 12:52:00,
2013-06-14 08:02:00,58.0,49.0,30.12,SE,124,0.0,2.0,72,0.00,,,0.00,,2013-06-14 13:02:00,
2013-06-14 08:11:00,59.0,49.0,30.12,SE,139,2.0,4.0,70,0.00,,,0.00,,2013-06-14 13:11:00,
2013-06-14 08:22:00,60.0,51.0,30.12,East,101,1.0,4.0,71,0.00,,,0.00,,2013-06-14 13:22:00,
2013-06-14 08:33:00,61.0,50.0,30.12,SE,131,1.0,3.0,68,0.00,,,0.00,,2013-06-14 13:33:00,
2013-06-14 08:43:00,62.0,51.0,30.13,SE,125,2.0,4.0,66,0.00,,,0.00,,2013-06-14 13:43:00,
2013-06-14 08:52:00,62.0,51.0,30.12,SSE,149,2.0,4.0,66,0.00,,,0.00,,2013-06-14 13:52:00,
2013-06-14 09:02:00,63.0,52.0,30.12,SE,134,0.0,3.0,67,0.00,,,0.00,,2013-06-14 14:02:00,
2013-06-14 09:11:00,64.0,51.0,30.12,SE,142,1.0,6.0,62,0.00,,,0.00,,2013-06-14 14:11:00,
2013-06-14 09:22:00,64.0,51.0,30.12,South,172,1.0,5.0,62,0.00,,,0.00,,2013-06-14 14:22:00,
2013-06-14 09:34:00,65.0,52.0,30.12,SSE,150,2.0,6.0,63,0.00,,,0.00,,2013-06-14 14:34:00,
2013-06-14 09:43:00,65.0,51.0,30.12,ESE,123,2.0,8.0,60,0.00,,,0.00,,2013-06-14 14:43:00,
2013-06-14 09:52:00,65.0,52.0,30.12,SSE,152,1.0,6.0,62,0.00,,,0.00,,2013-06-14 14:52:00,
2013-06-14 10:01:00,66.0,52.0,30.11,SE,139,1.0,7.0,61,0.00,,,0.00,,2013-06-14 15:01:00,
2013-06-14 10:11:00,67.0,53.0,30.11,SE,139,2.0,5.0,61,0.00,,,0.00,,2013-06-14 15:11:00,
2013-06-14 10:23:00,67.0,51.0,30.11,South,186,2.0,7.0,57,0.00,,,0.00,,2013-06-14 15:23:00,
2013-06-14 10:33:00,68.0,51.0,30.11,SSE,155,2.0,6.0,54,0.00,,,0.00,,2013-06-14 15:33:00,
2013-06-14 10:44:00,68.0,51.0,30.11,ESE,121,2.0,7.0,55,0.00,,,0.00,,2013-06-14 15:44:00,
2013-06-14 10:52:00,69.0,52.0,30.11,ENE,76,2.0,5.0,54,0.00,,,0.00,,2013-06-14 15:52:00,
2013-06-14 11:01:00,69.0,51.0,30.11,SE,124,2.0,5.0,52,0.00,,,0.00,,2013-06-14 16:01:00,
2013-06-14 11:11:00,69.0,50.0,30.10,SSE,168,2.0,6.0,51,0.00,,,0.00,,2013-06-14 16:11:00,
2013-06-14 11:22:00,70.0,52.0,30.10,ESE,120,2.0,6.0,53,0.00,,,0.00,,2013-06-14 16:22:00,
2013-06-14 11:33:00,70.0,50.0,30.10,SSE,150,4.0,9.0,50,0.00,,,0.00,,2013-06-14 16:33:00,
2013-06-14 11:43:00,70.0,51.0,30.09,SE,134,0.0,6.0,51,0.00,,,0.00,,2013-06-14 16:43:00,
2013-06-14 11:52:00,70.0,53.0,30.09,SE,146,1.0,7.0,55,0.00,,,0.00,,2013-06-14 16:52:00,
2013-06-14 12:02:00,71.0,53.0,30.09,South,171,3.0,6.0,53,0.00,,,0.00,,2013-06-14 17:02:00,
2013-06-14 12:11:00,71.0,52.0,30.09,SE,136,4.0,8.0,52,0.00,,,0.00,,2013-06-14 17:11:00,
2013-06-14 12:22:00,71.0,52.0,30.08,SSE,147,2.0,8.0,52,0.00,,,0.00,,2013-06-14 17:22:00,
2013-06-14 12:34:00,72.0,52.0,30.07,SSE,149,3.0,8.0,50,0.00,,,0.00,,2013-06-14 17:34:00,
2013-06-14 12:43:00,72.0,52.0,30.08,SSE,154,3.0,6.0,50,0.00,,,0.00,,2013-06-14 17:43:00,
2013-06-14 12:53:00,72.0,53.0,30.07,ESE,108,1.0,11.0,52,0.00,,,0.00,,2013-06-14 17:53:00,
2013-06-14 13:02:00,72.0,53.0,30.08,SSW,208,1.0,8.0,52,0.00,,,0.00,,2013-06-14 18:02:00,
2013-06-14 13:11:00,72.0,52.0,30.07,SSE,151,2.0,6.0,50,0.00,,,0.00,,2013-06-14 18:11:00,
2013-06-14 13:22:00,73.0,54.0,30.07,SE,132,2.0,9.0,51,0.00,,,0.00,,2013-06-14 18:22:00,
2013-06-14 13:32:00,73.0,52.0,30.07,SE,141,3.0,6.0,47,0.00,,,0.00,,2013-06-14 18:32:00,
2013-06-14 13:43:00,73.0,52.0,30.07,SSE,147,3.0,11.0,47,0.00,,,0.00,,2013-06-14 18:43:00,
2013-06-14 13:52:00,74.0,54.0,30.06,SSE,155,3.0,9.0,49,0.00,,,0.00,,2013-06-14 18:52:00,
2013-06-14 14:01:00,74.0,53.0,30.06,East,94,3.0,9.0,48,0.00,,,0.00,,2013-06-14 19:01:00,
2013-06-14 14:11:00,75.0,54.0,30.06,South,186,2.0,6.0,48,0.00,,,0.00,,2013-06-14 19:11:00,
2013-06-14 14:22:00,75.0,56.0,30.06,South,179,2.0,7.0,51,0.00,,,0.00,,2013-06-14 19:22:00,
2013-06-14 14:32:00,75.0,53.0,30.06,SSE,164,3.0,9.0,47,0.00,,,0.00,,2013-06-14 19:32:00,
2013-06-14 14:43:00,75.0,55.0,30.06,SSE,167,2.0,7.0,49,0.00,,,0.00,,2013-06-14 19:43:00,
2013-06-14 14:53:00,76.0,52.0,30.05,South,179,4.0,8.0,44,0.00,,,0.00,,2013-06-14 19:53:00,
2013-06-14 15:02:00,76.0,53.0,30.05,SSE,150,4.0,7.0,45,0.00,,,0.00,,2013-06-14 20:02:00,
2013-06-14 15:11:00,76.0,53.0,30.04,SSE,150,4.0,9.0,45,0.00,,,0.00,,2013-06-14 20:11:00,
2013-06-14 15:22:00,76.0,54.0,30.04,SE,135,3.0,7.0,46,0.00,,,0.00,,2013-06-14 20:22:00,
2013-06-14 15:33:00,76.0,53.0,30.03,SSE,157,3.0,10.0,45,0.00,,,0.00,,2013-06-14 20:33:00,
2013-06-14 15:43:00,76.0,54.0,30.03,South,177,2.0,8.0,46,0.00,,,0.00,,2013-06-14 20:43:00,
2013-06-14 15:53:00,76.0,55.0,30.01,South,180,4.0,9.0,48,0.00,,,0.00,,2013-06-14 20:53:00,
2013-06-14 16:02:00,77.0,53.0,30.01,SE,138,4.0,8.0,44,0.00,,,0.00,,2013-06-14 21:02:00,
2013-06-14 16:11:00,76.0,53.0,30.01,SE,132,2.0,7.0,45,0.00,,,0.00,,2013-06-14 21:11:00,
2013-06-14 16:22:00,76.0,55.0,30.00,East,96,2.0,10.0,48,0.00,,,0.00,,2013-06-14 21:22:00,
2013-06-14 16:34:00,77.0,56.0,30.00,South,180,2.0,8.0,49,0.00,,,0.00,,2013-06-14 21:34:00,
2013-06-14 16:42:00,76.0,54.0,30.00,ESE,115,3.0,9.0,47,0.00,,,0.00,,2013-06-14 21:42:00,
2013-06-14 16:52:00,77.0,55.0,30.00,South,169,3.0,8.0,46,0.00,,,0.00,,2013-06-14 21:52:00,
2013-06-14 17:01:00,77.0,55.0,29.99,South,174,4.0,10.0,47,0.00,,,0.00,,2013-06-14 22:01:00,
2013-06-14 17:11:00,77.0,55.0,29.98,SSE,147,4.0,11.0,47,0.00,,,0.00,,2013-06-14 22:11:00,
2013-06-14 17:22:00,77.0,56.0,29.98,South,175,2.0,7.0,48,0.00,,,0.00,,2013-06-14 22:22:00,
2013-06-14 17:33:00,76.0,52.0,29.98,SSW,194,3.0,8.0,44,0.00,,,0.00,,2013-06-14 22:33:00,
2013-06-14 17:43:00,75.0,55.0,29.96,SSE,157,2.0,7.0,49,0.00,,,0.00,,2013-06-14 22:43:00,
2013-06-14 17:53:00,74.0,54.0,29.96,SE,139,1.0,6.0,50,0.00,,,0.00,,2013-06-14 22:53:00,
2013-06-14 18:01:00,75.0,54.0,29.97,SSE,166,1.0,5.0,48,0.00,,,0.00,,2013-06-14 23:01:00,
2013-06-14 18:11:00,76.0,56.0,29.97,SSE,150,3.0,7.0,50,0.00,,,0.00,,2013-06-14 23:11:00,
2013-06-14 18:22:00,76.0,54.0,29.97,South,181,3.0,6.0,47,0.00,,,0.00,,2013-06-14 23:22:00,
2013-06-14 18:33:00,75.0,54.0,29.97,SSE,159,2.0,5.0,48,0.00,,,0.00,,2013-06-14 23:33:00,
2013-06-14 18:43:00,75.0,55.0,29.97,SSE,166,3.0,6.0,50,0.00,,,0.00,,2013-06-14 23:43:00,
2013-06-14 18:52:00,75.0,55.0,29.97,SSE,165,2.0,8.0,50,0.00,,,0.00,,2013-06-14 23:52:00,
2013-06-14 19:01:00,74.0,56.0,29.98,SSW,200,1.0,5.0,53,0.00,,,0.00,,2013-06-15 00:01:00,
2013-06-14 19:11:00,74.0,56.0,29.98,SSE,168,1.0,5.0,54,0.00,,,0.00,,2013-06-15 00:11:00,
2013-06-14 19:22:00,73.0,57.0,29.98,South,169,0.0,3.0,57,0.00,,,0.00,,2013-06-15 00:22:00,
2013-06-14 19:34:00,73.0,57.0,29.98,SSE,167,0.0,4.0,57,0.00,,,0.00,,2013-06-15 00:34:00,
2013-06-14 19:43:00,73.0,57.0,29.98,SSE,167,0.0,2.0,58,0.00,,,0.00,,2013-06-15 00:43:00,
2013-06-14 19:53:00,72.0,57.0,29.98,SSE,167,0.0,2.0,59,0.00,,,0.00,,2013-06-15 00:53:00,
2013-06-14 20:01:00,72.0,57.0,29.98,SSE,167,0.0,2.0,59,0.00,,,0.00,,2013-06-15 01:01:00,
2013-06-14 20:11:00,72.0,58.0,29.98,SSE,167,0.0,1.0,61,0.00,,,0.00,,2013-06-15 01:11:00,
2013-06-14 20:22:00,72.0,57.0,29.98,SSE,167,0.0,1.0,60,0.00,,,0.00,,2013-06-15 01:22:00,
2013-06-14 20:33:00,71.0,56.0,29.97,SSE,167,0.0,0.0,60,0.00,,,0.00,,2013-06-15 01:33:00,
2013-06-14 20:43:00,71.0,57.0,29.98,SSE,167,0.0,2.0,62,0.00,,,0.00,,2013-06-15 01:43:00,
2013-06-14 20:54:00,71.0,58.0,29.97,SSE,167,0.0,1.0,63,0.00,,,0.00,,2013-06-15 01:54:00,
2013-06-14 21:02:00,70.0,58.0,29.96,SSE,166,0.0,1.0,65,0.00,,,0.00,,2013-06-15 02:02:00,
2013-06-14 21:11:00,69.0,58.0,29.97,SSE,166,0.0,3.0,67,0.00,,,0.00,,2013-06-15 02:11:00,
2013-06-14 21:22:00,69.0,58.0,29.96,SSE,166,0.0,0.0,68,0.00,,,0.00,,2013-06-15 02:22:00,
2013-06-14 21:33:00,68.0,58.0,29.96,SSE,166,0.0,2.0,70,0.00,,,0.00,,2013-06-15 02:33:00,
2013-06-14 21:43:00,68.0,58.0,29.96,SSE,166,0.0,2.0,71,0.00,,,0.00,,2013-06-15 02:43:00,
2013-06-14 21:53:00,67.0,58.0,29.96,SSE,155,1.0,3.0,73,0.00,,,0.00,,2013-06-15 02:53:00,
2013-06-14 22:01:00,67.0,58.0,29.96,SSE,155,1.0,3.0,73,0.00,,,0.00,,2013-06-15 03:01:00,
2013-06-14 22:11:00,67.0,58.0,29.95,SE,124,1.0,4.0,74,0.00,,,0.00,,2013-06-15 03:11:00,
2013-06-14 22:23:00,66.0,57.0,29.96,ESE,104,1.0,3.0,73,0.00,,,0.00,,2013-06-15 03:23:00,
2013-06-14 22:32:00,66.0,57.0,29.96,SE,139,0.0,3.0,73,0.00,,,0.00,,2013-06-15 03:32:00,
2013-06-14 22:43:00,66.0,57.0,29.97,SE,139,0.0,4.0,73,0.00,,,0.00,,2013-06-15 03:43:00,
2013-06-14 22:52:00,66.0,57.0,29.98,South,170,1.0,3.0,74,0.00,,,0.00,,2013-06-15 03:52:00,
2013-06-14 23:02:00,66.0,58.0,29.97,South,169,0.0,2.0,75,0.00,,,0.00,,2013-06-15 04:02:00,
2013-06-14 23:12:00,65.0,57.0,29.96,South,169,0.0,2.0,76,0.00,,,0.00,,2013-06-15 04:12:00,
2013-06-14 23:22:00,65.0,57.0,29.95,SE,136,1.0,4.0,76,0.00,,,0.00,,2013-06-15 04:22:00,
2013-06-14 23:34:00,65.0,57.0,29.95,SE,144,1.0,4.0,76,0.00,,,0.00,,2013-06-15 04:34:00,
2013-06-14 23:43:00,65.0,57.0,29.95,SE,139,0.0,4.0,76,0.00,,,0.00,,2013-06-15 04:43:00,
2013-06-14 23:53:00,65.0,58.0,29.95,SE,139,0.0,2.0,77,0.00,,,0.00,,2013-06-15 04:53:00,